Location: Ariel
(45.9570°N, 122.5700°W)
Time: 14:15:24
(UTC-07:00)

ZACube-1 - Visible Passes

Search period start: 14 October 2019 00:00
Search period end: 24 October 2019 00:00
Orbit: 584 x 667 km, 97.6° (Epoch: 13 October)

Date Brightness Start Highest point End Pass type
(mag) Time Alt. Az. Time Alt. Az. Time Alt. Az.
14 Oct ? 06:11:40 10° E 06:12:13 10° E 06:12:46 10° E visible
15 Oct ? 06:28:38 10° NE 06:31:28 16° E 06:34:17 10° SE visible
15 Oct ? 19:01:27 10° S 19:05:31 54° W 19:09:42 10° NNW visible
16 Oct ? 06:46:56 10° NE 06:50:38 25° E 06:54:22 10° SSE visible
16 Oct ? 19:20:49 10° SSW 19:24:36 34° W 19:28:29 10° NNW visible
17 Oct ? 19:40:30 10° SW 19:43:44 22° W 19:47:04 10° NW visible
18 Oct ? 20:00:42 10° WSW 20:02:57 14° W 20:05:14 10° NW visible
19 Oct ? 06:10:19 10° ENE 06:11:01 10° E 06:11:44 10° E visible
19 Oct ? 18:41:03 10° SSE 18:45:14 89° WSW 18:49:33 10° NNW visible
20 Oct ? 06:27:24 10° NE 06:30:17 16° E 06:33:08 10° SE visible
20 Oct ? 19:00:09 10° S 19:04:16 55° W 19:08:30 10° NNW visible
21 Oct ? 06:45:43 10° NE 06:49:27 25° E 06:53:12 10° SSE visible
21 Oct ? 19:19:30 10° SSW 19:23:21 34° W 19:27:18 10° NNW visible
22 Oct ? 07:04:20 10° NNE 07:08:35 38° E 07:12:51 10° SSE visible
22 Oct ? 19:39:10 10° SW 19:42:29 22° W 19:45:54 10° NW visible
23 Oct ? 19:59:19 10° WSW 20:01:42 15° W 20:04:06 10° NW visible
